• MPC Preparation (Info)

  • MPEC 2012-V95 : 2012 VE77

    The following Minor Planet Electronic Circular may be linked-to from your own Web pages, but must not otherwise be redistributed electronically.

    A form allowing access to any MPEC is at the bottom of this page.


    Read MPEC 2012-V94 Read MPEC 2012-V96


    M.P.E.C. 2012-V95                                Issued 2012 Nov. 15, 16:37 UT
    
         The Minor Planet Electronic Circulars contain information on unusual
             minor planets and routine data on comets.  They are published
       on behalf of Commission 20 of the International Astronomical Union by the
              Minor Planet Center, Smithsonian Astrophysical Observatory,
                              Cambridge, MA 02138, U.S.A.
    
                 Prepared using the Tamkin Foundation Computer Network
    
                                  MPC@CFA.HARVARD.EDU
                URL https://www.minorplanetcenter.net/    ISSN 1523-6714
    
                                       2012 VE77
    
    Observations:
         K12V77E* C2012 11 14.17679 01 17 34.29 +27 05 52.5          20.7 VrEV095G96
         K12V77E  C2012 11 14.17815 01 17 32.46 +27 05 41.8          20.2 VrEV095G96
         K12V77E  C2012 11 14.17995 01 17 30.19 +27 05 28.5          20.1 VrEV095G96
         K12V77E  C2012 11 14.18130 01 17 28.60 +27 05 18.9          20.4 VrEV095G96
         K12V77E  C2012 11 14.27757 01 15 27.54 +26 52 52.2          19.8 VrEV095G96
         K12V77E  C2012 11 14.27813 01 15 26.96 +26 52 49.6          20.3 VrEV095G96
         K12V77E  C2012 11 14.27868 01 15 26.24 +26 52 44.6          20.1 VrEV095G96
         K12V77E  C2012 11 14.27924 01 15 25.56 +26 52 40.3          20.1 VrEV095G96
         K12V77E  C2012 11 14.35869 01 13 43.53 +26 41 28.5          20.9 VrEV095G96
         K12V77E  C2012 11 14.36079 01 13 40.80 +26 41 09.8          20.2 VrEV095G96
         K12V77E  C2012 11 14.36289 01 13 38.17 +26 40 51.9          20.3 VrEV095G96
         K12V77E  C2012 11 14.36500 01 13 35.40 +26 40 33.0          20.1 VrEV095G96
         K12V77E KC2012 11 14.82054 01 03 35.19 +25 27 36.6          19.7 RuEV095J95
         K12V77E KC2012 11 14.84580 01 02 54.92 +25 23 05.3          20.0 RuEV095J95
         K12V77E KC2012 11 14.87242 01 02 11.66 +25 18 13.1          20.0 RuEV095J95
         K12V77E KC2012 11 14.91387 01 01 02.50 +25 10 53.5                vEV095I93
         K12V77E KC2012 11 14.92331 01 00 46.76 +25 09 05.0          19.9 VvEV095I93
         K12V77E KC2012 11 15.03642200 57 55.18 +24 46 34.2          19.9 VrEV095H21
         K12V77E KC2012 11 15.04090900 57 47.21 +24 45 39.9          20.0 VrEV095H21
         K12V77E KC2012 11 15.04455500 57 40.72 +24 44 55.9          20.0 VrEV095H21
         K12V77E  C2012 11 15.17116 00 53 53.70 +24 18 13.8          19.7 VrEV095G96
         K12V77E  C2012 11 15.17160 00 53 52.83 +24 18 07.3          19.6 VrEV095G96
         K12V77E  C2012 11 15.17207 00 53 51.93 +24 18 01.4          19.4 VrEV095G96
         K12V77E  C2012 11 15.17252 00 53 51.07 +24 17 55.0          19.5 VrEV095G96
    
    Observer details:
    G96 Mt. Lemmon Survey.  Observer R. E. Hill.  Measurers A. Boattini,
        E. J. Christensen, A. R. Gibbs, A. D. Grauer, R. E. Hill, J. A. Johnson,
        R. A. Kowalski, S. M. Larson, R. H. McNaught.  1.5-m reflector + CCD.
    H21 Astronomical Research Observatory, Westfield.  Observer R. Holmes.
        Measurers L. Buzzi, H. Devore, S. Foglia, T. Vorobjov.  0.61-m f/4.0
        astrograph + CCD.
    I93 St Pardon de Conques.  Observer F. Losse.  0.40-m f/3.7 reflector + CCD.
    J95 Great Shefford.  Observer P. Birtwhistle.  0.40-m f/6.0 Schmidt-Cassegrain
        + CCD.
    
    Orbital elements:
    2012 VE77                                                Earth MOID = 0.0009 AU
    Epoch 2012 Sept. 30.0 TT = JDT 2456200.5                MPC
    M 314.91186              (2000.0)            P               Q
    n   0.47012841     Peri.  254.09438     -0.62858570     -0.76904174
    a   1.6380421      Node   235.43558     +0.75654036     -0.57002754
    e   0.5542688      Incl.    8.09749     +0.18035162     -0.28921169
    P   2.10           H   26.2           G   0.15           U   7
    Residuals in seconds of arc
    121114 G96  2.0+  0.6+    121114 G96  0.2-  0.1-    121114 I93  1.2+  0.7+
    121114 G96  0.1-  0.1-    121114 G96  0.6-  0.4-    121115 H21  0.4+  0.2-
    121114 G96  0.9-  0.2-    121114 G96  0.4+  0.1+    121115 H21  0.2+  0.2-
    121114 G96  0.0   0.1+    121114 G96  0.3-  0.2-    121115 H21  0.1+  0.2+
    121114 G96  1.7-  1.9-    121114 J95  0.9-  0.7-    121115 G96  0.0   0.3-
    121114 G96  0.1+  0.1+    121114 J95  0.6+  0.3-    121115 G96  0.3-  0.8-
    121114 G96  0.1-  0.5-    121114 J95  0.0   0.7+    121115 G96  0.2-  0.4-
    121114 G96  0.4+  0.2-    121114 I93  1.1-  0.8-    121115 G96  0.1-  0.7-
    
    Ephemeris:
    2012 VE77                a,e,i = 1.64, 0.55, 8                   q = 0.7301
    Date    TT    R. A. (2000) Decl.     Delta      r     Elong.  Phase     V
    2012 10 16    02 30 39.0 +31 25 08   0.3092  1.2796   152.7    20.9    25.2
    ...
    2012 10 31    02 23 11.9 +32 16 47   0.1606  1.1464   161.8    15.7    23.4
    ...
    2012 11 08    02 07 24.3 +31 36 20   0.08823 1.0749   161.7    16.8    22.0
    ...
    2012 11 14    01 20 43.9 +27 27 16   0.03668 1.0218   151.6    27.4    20.3
    2012 11 15    00 58 46.9 +24 55 47   0.02857 1.0130   146.3    32.8    19.9
    2012 11 16    00 22 30.4 +20 02 38   0.02093 1.0043   136.9    42.3    19.5
    ...
    2012 11 22    16 09 53.3 -37 03 54   0.03648 0.9529    17.4   161.9    30.6
    ...
    2012 11 30    15 10 47.1 -35 13 42   0.1060  0.8881    21.2   156.4    30.9
    ...
    2012 12 15    15 05 20.6 -33 29 47   0.2497  0.7877    33.3   136.6    29.1
    
    A. U. Tomatic                (C) Copyright 2012 MPC           M.P.E.C. 2012-V95
    

    Read MPEC 2012-V94 Read MPEC 2012-V96


    MPEC number:

    Enter an MPEC number in one of the following forms:

    • 1997-B01 (the full form)
    • J97B01 (the packed version of the full form)
    • B01 (the abbreviated form)